Weather History for Kotzebue, AK

Change the Weather History Date:

Sunday, March 2, 2014

  Actual Average Record
Temperature  
Mean Temperature 12 °F -  
Max Temperature 18 °F - 35 °F (2003)
Min Temperature 5 °F -7 °F -43 °F (1929)
Degree Days  
Heating Degree Days 53 65  
Month to date heating degree days 94 130  
Since 1 July heating degree days 9026 10372  
Cooling Degree Days 0    
Month to date cooling degree days 0  
Year to date cooling degree days 0  
Moisture  
Dew Point 5 °F    
Average Humidity 0    
Maximum Humidity 0    
Minimum Humidity 0    
Precipitation  
Precipitation T in 0.02 in 0.17 in (1976)
Month to date precipitation T 0.04  
Year to date precipitation 0.72 1.32  
Snow  
Snow T in 0.20 in 2.10 in (2006)
Month to date snowfall T 0.5  
Since 1 July snowfall 25.0 48.1  
Snow Depth 7.00 in    
Sea Level Pressure  
Sea Level Pressure 30.23 in    
Wind  
Wind Speed 17 mph (NW)    
Max Wind Speed 26 mph    
Max Gust Speed 30 mph    
Visibility 8 miles    
Events Snow    
T = Trace of Precipitation, MM = Missing Value Source: NWS Daily Summary

Daily Weather History Graph

Daily Weather History Graph

Search for Another Location

Airport:

Trip Planner

Search our weather history database for the weather conditions in past years. The results will help you decide how hot, cold, wet, or windy it might be!

Date:

Astronomy

Mar. 02, 2014 Rise Set
Actual Time 9:00 AM AKST 7:05 PM AKST
Civil Twilight 8:07 AM AKST 7:59 PM AKST
Nautical Twilight 7:06 AM AKST 9:00 PM AKST
Astronomical Twilight 6:01 AM AKST 10:05 PM AKST
Moon 8:44 AM AKST (3/2) 10:27 PM AKST (3/2)
Length of Visible Light 11h 51m
Length of Day
10h 04m
Waxing Crescent, 3% of the Moon is Illuminated
Mar 2
Waxing Crescent
Mar 8
First Quarter
Mar 16
Full
Mar 23
Last Quarter
Mar 30
New

Hourly Weather History & Observations

Time (AKST) Temp. Windchill Dew Point Humidity Pressure Visibility Wind Dir Wind Speed Gust Speed Precip Events Conditions
12:53 AM 16.0 °F 1.1 °F 12.9 °F 88% 30.19 in 9.0 mi NW 15.0 mph - N/A   Overcast
1:18 AM 15.8 °F 2.1 °F 12.2 °F 86% 30.19 in 10.0 mi NNW 12.7 mph - N/A   Overcast
1:53 AM 16.0 °F 2.9 °F 12.9 °F 88% 30.20 in 8.0 mi NW 11.5 mph - N/A   Overcast
2:53 AM 12.9 °F -1.6 °F 10.0 °F 88% 30.21 in 8.0 mi NW 12.7 mph - 0.00 in   Overcast
3:31 AM 12.2 °F -4.8 °F 8.6 °F 85% 30.21 in 3.0 mi WNW 17.3 mph - 0.00 in Snow Light Snow
3:53 AM 12.0 °F -4.5 °F 9.0 °F 88% 30.22 in 3.0 mi NW 16.1 mph - 0.00 in Snow Light Snow
4:53 AM 10.9 °F -6.5 °F 6.1 °F 81% 30.22 in 9.0 mi NW 17.3 mph - 0.00 in   Overcast
5:53 AM 10.0 °F -8.1 °F 6.1 °F 84% 30.22 in 10.0 mi WNW 18.4 mph - N/A   Mostly Cloudy
6:53 AM 9.0 °F -10.0 °F 5.0 °F 84% 30.24 in 9.0 mi WNW 19.6 mph - N/A   Overcast
7:53 AM 8.1 °F -11.7 °F 3.9 °F 83% 30.25 in 7.0 mi WNW 20.7 mph - N/A   Overcast
8:53 AM 7.0 °F -14.9 °F 3.0 °F 84% 30.25 in 5.0 mi WNW 25.3 mph - 0.00 in Snow Light Snow
9:42 AM 5.0 °F -15.7 °F 1.4 °F 85% 30.26 in 6.0 mi NNW 20.7 mph - 0.00 in   Overcast
9:53 AM 5.0 °F -16.2 °F 1.0 °F 84% 30.26 in 7.0 mi NW 21.9 mph - 0.00 in   Overcast
10:13 AM 5.0 °F -15.2 °F 1.4 °F 85% 30.26 in 6.0 mi NW 19.6 mph - N/A   Scattered Clouds
10:53 AM 5.0 °F -15.2 °F 1.0 °F 84% 30.26 in 6.0 mi WNW 19.6 mph 24.2 mph N/A   Scattered Clouds
11:53 AM 6.1 °F -12.8 °F 1.0 °F 80% 30.27 in 6.0 mi NW 17.3 mph - N/A Snow Blowing Snow
12:53 PM 7.0 °F -13.1 °F 1.9 °F 80% 30.27 in 10.0 mi WNW 20.7 mph - N/A   Scattered Clouds
1:53 PM 7.0 °F -12.6 °F 1.9 °F 80% 30.26 in 7.0 mi WNW 19.6 mph - N/A   Scattered Clouds
2:53 PM 6.1 °F -14.8 °F 1.0 °F 80% 30.25 in 10.0 mi WNW 21.9 mph - N/A   Scattered Clouds
3:53 PM 7.0 °F -12.1 °F 3.0 °F 84% 30.24 in 10.0 mi NW 18.4 mph - N/A   Scattered Clouds
4:00 PM 6.8 °F -12.9 °F 3.2 °F 85% 30.24 in 10.0 mi NW 19.6 mph - N/A   Overcast
4:53 PM 6.1 °F -14.3 °F 1.9 °F 83% 30.24 in 10.0 mi NW 20.7 mph - N/A   Overcast
5:53 PM 7.0 °F -11.0 °F 1.9 °F 80% 30.23 in 10.0 mi WNW 16.1 mph - N/A   Overcast
6:53 PM 8.1 °F -9.0 °F 5.0 °F 87% 30.23 in 10.0 mi WNW 15.0 mph - N/A   Overcast
7:53 PM 9.0 °F -7.3 °F 5.0 °F 84% 30.22 in 10.0 mi WNW 13.8 mph - N/A   Overcast
8:18 PM 8.6 °F -7.0 °F 5.0 °F 85% 30.22 in 10.0 mi NW 12.7 mph - N/A   Overcast
8:53 PM 10.0 °F -5.2 °F 6.1 °F 84% 30.22 in 10.0 mi NW 12.7 mph - 0.00 in   Overcast
9:53 PM 10.0 °F -5.2 °F 6.1 °F 84% 30.22 in 10.0 mi NW 12.7 mph - N/A   Overcast
10:53 PM 12.0 °F -2.0 °F 6.1 °F 77% 30.22 in 10.0 mi North 11.5 mph - N/A   Overcast
11:53 PM 10.9 °F -2.6 °F 5.0 °F 77% 30.21 in 10.0 mi North 10.4 mph - N/A   Overcast